H1 CPF  2 CNE 2023  3 10  0 069 01 swot            NONE
H2  2217301 4381    54754 2023   3 10  0  0  0 2023   3 14  0  0  0  180 1 1   0 0 0  1
H9
10 0 60013  43200.000000  0       -378649.298      -2394647.624       6812975.447
10 0 60013  43380.000000  0        598287.541      -1545467.679       7038500.842
10 0 60013  43560.000000  0       1577686.953       -669832.398       7024806.231
10 0 60013  43740.000000  0       2526817.474        203083.812       6772339.393
10 0 60013  43920.000000  0       3413192.524       1045049.046       6289619.433
10 0 60013  44100.000000  0       4205691.822       1829691.211       5592965.582
10 0 60013  44280.000000  0       4875668.216       2533328.610       4705971.013
10 0 60013  44460.000000  0       5398008.587       3135694.226       3658736.550
10 0 60013  44640.000000  0       5752109.454       3620532.185       2486868.091
10 0 60013  44820.000000  0       5922714.806       3976040.003       1230265.749
10 0 60013  45000.000000  0       5900579.444       4195142.642        -68253.445
10 0 60013  45180.000000  0       5682918.736       4275582.827      -1364451.857
10 0 60013  45360.000000  0       5273618.151       4219826.509      -2614220.673
10 0 60013  45540.000000  0       4683193.080       4034791.226      -3775116.067
10 0 60013  45720.000000  0       3928503.527       3731416.797      -4807819.989
10 0 60013  45900.000000  0       3032237.829       3324104.572      -5677469.063
10 0 60013  46080.000000  0       2022191.817       2830057.972      -6354805.618
10 0 60013  46260.000000  0        930374.794       2268558.123      -6817117.207
10 0 60013  46440.000000  0       -208018.912       1660209.648      -7048945.363
10 0 60013  46620.000000  0      -1355741.464       1026187.139      -7042559.510
10 0 60013  46800.000000  0      -2474697.230        387503.806      -6798187.820
10 0 60013  46980.000000  0      -3527185.391       -235674.061      -6324004.150
10 0 60013  47160.000000  0      -4477153.579       -824650.313      -5635880.681
10 0 60013  47340.000000  0      -5291433.946      -1362747.154      -4756902.106
10 0 60013  47520.000000  0      -5940922.514      -1835767.085      -3716644.066
10 0 60013  47700.000000  0      -6401659.088      -2232356.514      -2550223.250
10 0 60013  47880.000000  0      -6655758.297      -2544257.672      -1297137.375
10 0 60013  48060.000000  0      -6692145.418      -2766439.119            69.378
10 0 60013  48240.000000  0      -6507058.031      -2897101.151       1297269.464
10 0 60013  48420.000000  0      -6104283.086      -2937557.876       2550289.085
10 0 60013  48600.000000  0      -5495108.476      -2892002.751       3716454.216
10 0 60013  48780.000000  0      -4697992.981      -2767172.234       4756077.398
10 0 60013  48960.000000  0      -3737969.741      -2571926.132       5633824.884
10 0 60013  49140.000000  0      -2645817.228      -2316773.200       6319911.420
10 0 60013  49320.000000  0      -1457034.643      -2013367.780       6791092.781
10 0 60013  49500.000000  0       -210656.326      -1673998.658       7031428.250
10 0 60013  49680.000000  0       1052048.670      -1311095.014       7032788.222
10 0 60013  49860.000000  0       2288943.093       -936772.329       6795111.024
10 0 60013  50040.000000  0       3458427.702       -562427.826       6326411.424
10 0 60013  50220.000000  0       4520850.740       -198396.283       5642530.586
10 0 60013  50400.000000  0       5439874.000        146324.232       4766626.789
10 0 60013  50580.000000  0       6183749.505        464269.217       3728420.243
10 0 60013  50760.000000  0       6726465.469        749626.506       2563205.739
10 0 60013  50940.000000  0       7048707.379        998276.886       1310653.995
10 0 60013  51120.000000  0       7138589.650       1207756.694         13443.791
10 0 60013  51300.000000  0       6992119.201       1377149.422      -1284227.745
10 0 60013  51480.000000  0       6613362.382       1506913.246      -2538194.356
10 0 60013  51660.000000  0       6014311.107       1598655.567      -3705859.756
10 0 60013  51840.000000  0       5214457.233       1654872.187      -4747667.296
10 0 60013  52020.000000  0       4240096.823       1678666.629      -5628439.178
10 0 60013  52200.000000  0       3123406.161       1673468.092      -6318536.767
10 0 60013  52380.000000  0       1901334.385       1642765.194      -6794814.052
10 0 60013  52560.000000  0        614356.183       1589870.231      -7041341.972
10 0 60013  52740.000000  0       -694869.169       1517727.976      -7049896.866
10 0 60013  52920.000000  0      -1982898.824       1428776.649      -6820208.995
10 0 60013  53100.000000  0      -3206927.160       1324865.482      -6359964.462
10 0 60013  53280.000000  0      -4326186.736       1207233.542      -5684569.407
10 0 60013  53460.000000  0      -5303303.712       1076547.929      -4816679.699
10 0 60013  53640.000000  0      -6105567.045        932996.339      -3785492.569
10 0 60013  53820.000000  0      -6706066.680        776426.907      -2625811.131
10 0 60013  54000.000000  0      -7084655.463        606523.661      -1376899.378
10 0 60013  54180.000000  0      -7228688.291        423006.345        -81157.053
10 0 60013  54360.000000  0      -7133492.921        225841.394       1217342.187
10 0 60013  54540.000000  0      -6802546.140         15451.341       2474383.385
10 0 60013  54720.000000  0      -6247349.277       -207092.385       3647155.635
10 0 60013  54900.000000  0      -5487002.906       -439906.177       4695744.865
10 0 60013  55080.000000  0      -4547504.220       -680172.709       5584509.724
10 0 60013  55260.000000  0      -3460807.518       -924070.304       6283288.756
10 0 60013  55440.000000  0      -2263692.512      -1166759.571       6768406.223
10 0 60013  55620.000000  0       -996483.294      -1402432.842       7023448.252
10 0 60013  55800.000000  0        298332.475      -1624428.740       7039789.587
10 0 60013  55980.000000  0       1577534.169      -1825412.942       6816865.095
10 0 60013  56160.000000  0       2798609.110      -1997620.924       6362189.845
10 0 60013  56340.000000  0       3921170.718      -2133156.213       5691125.947
10 0 60013  56520.000000  0       4908313.905      -2224334.009       4826392.697
10 0 60013  56700.000000  0       5727861.804      -2264055.796       3797327.291
10 0 60013  56880.000000  0       6353461.500      -2246198.176       2638909.816
10 0 60013  57060.000000  0       6765479.704      -2165994.940       1390575.984
10 0 60013  57240.000000  0       6951661.604      -2020390.725         94859.723
10 0 60013  57420.000000  0       6907519.978      -1808344.377      -1204090.309
10 0 60013  57600.000000  0       6636430.640      -1531062.367      -2462058.521
10 0 60013  57780.000000  0       6149431.443      -1192148.378      -3636306.380
10 0 60013  57960.000000  0       5464740.354       -797659.335      -4687046.557
10 0 60013  58140.000000  0       4607023.066       -356062.816      -5578790.825
10 0 60013  58320.000000  0       3606450.419        121904.037      -6281524.161
10 0 60013  58500.000000  0       2497592.736        623469.699      -6771672.161
10 0 60013  58680.000000  0       1318198.604       1134151.685      -7032839.358
10 0 60013  58860.000000  0        107906.868       1638160.917      -7056311.360
10 0 60013  59040.000000  0      -1093073.535       2118878.895      -6841319.019
10 0 60013  59220.000000  0      -2245281.522       2559397.273      -6395059.015
10 0 60013  59400.000000  0      -3311282.171       2943104.857      -5732471.316
10 0 60013  59580.000000  0      -4256875.002       3254308.757      -4875781.273
10 0 60013  59760.000000  0      -5052205.182       3478869.207      -3853805.592
10 0 60013  59940.000000  0      -5672736.568       3604819.550      -2701028.473
10 0 60013  60120.000000  0      -6100051.845       3622944.909      -1456470.468
10 0 60013  60300.000000  0      -6322445.146       3527288.543       -162375.492
10 0 60013  60480.000000  0      -6335273.867       3315555.219       1137241.395
10 0 60013  60660.000000  0      -6141045.924       2989385.116       2398128.343
10 0 60013  60840.000000  0      -5749236.996       2554481.475       3577343.800
10 0 60013  61020.000000  0      -5175852.187       2020582.527       4634753.204
10 0 60013  61200.000000  0      -4442753.495       1401275.585       5534413.187
10 0 60013  61380.000000  0      -3576793.580        713662.643       6245790.477
10 0 60013  61560.000000  0      -2608798.009        -22111.067       6744781.063
10 0 60013  61740.000000  0      -1572438.051       -783449.954       7014499.942
10 0 60013  61920.000000  0       -503040.616      -1546002.889       7045824.465
10 0 60013  62100.000000  0        563623.305      -2284442.202       6837684.888
10 0 60013  62280.000000  0       1592536.208      -2973306.371       6397099.151
10 0 60013  62460.000000  0       2550584.903      -3587882.746       5738951.933
10 0 60013  62640.000000  0       3407635.770      -4105103.933       4885521.150
10 0 60013  62820.000000  0       4137503.643      -4504428.591       3865755.471
10 0 60013  63000.000000  0       4718779.785      -4768671.756       2714313.434
10 0 60013  63180.000000  0       5135486.284      -4884745.430       1470389.672
10 0 60013  63360.000000  0       5377530.173      -4844271.112        176364.575
10 0 60013  63540.000000  0       5440934.585      -4644031.257      -1123671.958
10 0 60013  63720.000000  0       5327838.872      -4286234.691      -2385464.501
10 0 60013  63900.000000  0       5046268.323      -3778577.640      -3566139.032
10 0 60013  64080.000000  0       4609688.470      -3134096.780      -4625684.521
10 0 60013  64260.000000  0       4036372.503      -2370824.851      -5528309.997
10 0 60013  64440.000000  0       3348619.687      -1511265.980      -6243629.462
10 0 60013  64620.000000  0       2571868.498       -581714.007      -6747641.987
99